Location: Newark
(34.4697°S, 57.8467°W)
Time: 03:20:28
(UTC+00:00)

N. Korean satellite - Pass Details

Date: 22 July 2019
Orbit: 457 x 507 km, 97.2° (Epoch: 21 August)

Event Time Altitude Azimuth Distance (km) Brightness Sun altitude
Rises 21:46:18 0° 169° (SSE) 2,526 9.9 -9.0°
Reaches altitude 10° 21:48:23 10° 168° (SSE) 1,636 8.9 -9.4°
Maximum altitude 21:51:53 85° 79° (E) 472 6.4 -10.1°
Drops below altitude 10° 21:55:20 10° 349° (N) 1,603 9.6 -10.8°
Sets 21:57:21 0° 349° (NNW) 2,469 10.6 -11.2°
